Location: Newark
(15.4608°S, 41.1635°W)
Time: 23:22:57
(UTC+00:00)

Vanguard 3 - Pass Details

Date: 07 August 2021
Orbit: 510 x 3260 km, 33.3° (Epoch: 20 September)

Event Time Altitude Azimuth Distance (km) Brightness Sun altitude
Rises 01:06:10 0° 333° (NNW) 7,178 12.2 -64.9°
Reaches altitude 10° 01:12:39 10° 345° (NNW) 6,178 11.6 -66.5°
Enters shadow 01:17:44 18° 357° (N) 5,463 11.2 -67.7°
Maximum altitude 01:26:54 25° 32° (NNE) 4,574 - -69.9°
Drops below altitude 10° 01:38:13 10° 80° (E) 4,927 - -72.6°
Sets 01:42:28 0° 93° (E) 5,527 - -73.6°
